Location: Riverside Cemetery
(38.3047°N, 99.7773°W)
Time: 10:40:55
(UTC+00:00)

ATLAS 2AS CENTAUR R/B - Pass Details

Date: 19 September 2020
Orbit: 939 x 1273 km, 63.7° (Epoch: 19 October)

Event Time Altitude Azimuth Distance (km) Brightness Sun altitude
Rises 04:09:10 0° 227° (SW) 4,175 5.9 -38.4°
Reaches altitude 10° 04:12:00 10° 232° (SW) 3,234 5.3 -38.8°
Enters shadow 04:16:46 37° 253° (WSW) 1,861 4.0 -39.5°
Exits shadow 04:20:07 54° 319° (NW) 1,512 3.5 -40.0°
Drops below altitude 10° 04:27:28 10° 25° (NNE) 3,241 5.4 -41.0°
Sets 04:30:19 0° 30° (NNE) 4,185 6.0 -41.4°
